[[{"header":{"parameterUnit":"m.s-1","parameterCategory":1,"la1":30.2991,"la2":30.254,"lo1":-89.0895,"lo2":-89.0444,"dy":0.0017,"dx":0.0017,"nx":28,"ny":28,"refTime":"2026-02-08T09:00:00:Z","depth":0,"parameterNumber":2,"parameterNumberName":"U-component_of_WINDS"},"data":[0,0,0,0,0,0,0,0,0,0,0,0,0,0,0,0,0,0,0,0,0,0,0,0,0,0,0,0,0,0,0,0,0,0,0,0,0,0,0,0,0,0,0,0,0,0,0,0,0,0,0,0,0,0,0,0,0,0,-3.3603,-3.3604,0,-3.3649,-3.365,-3.365,-3.3578,-3.3576,-3.3573,-3.3571,-3.362,-3.3623,-3.3627,0,0,0,0,0,0,0,0,0,0,0,0,0,-3.3454,-3.3457,-3.3603,-3.3604,-3.3604,-3.3649,-3.365,-3.3651,-3.3579,-3.3576,-3.3573,-3.357,-3.3619,-3.3623,-3.3627,0,0,0,0,0,0,0,0,0,0,0,0,0,-3.3511,-3.3458,-3.3603,-3.3574,-3.3572,-3.3649,-3.365,-3.3651,-3.358,-3.3576,-3.3572,-3.3569,-3.3617,-3.3622,-3.3628,-3.3736,0,0,-3.3644,-3.3647,0,0,0,0,0,0,0,0,-3.3508,-3.3517,-3.3577,-3.3576,-3.3574,-3.3604,-3.3615,-3.3679,-3.358,-3.3577,-3.3571,-3.3567,-3.3618,-3.3623,-3.364,-3.3738,-3.3741,-3.3645,-3.3648,-3.365,-3.3652,0,0,0,0,0,0,0,-3.3504,-3.3514,-3.3621,-3.3578,-3.3576,-3.3559,-3.3563,-3.3627,-3.3618,-3.3577,-3.3571,-3.3578,-3.3616,-3.3635,-3.364,-3.3741,-3.3645,-3.3649,-3.3653,-3.3655,-3.3933,-3.3937,0,0,0,0,0,0,-3.3504,-3.3512,-3.362,-3.3623,-3.3531,-3.3565,-3.3569,-3.3598,-3.3617,-3.3616,-3.3581,-3.3574,-3.3627,-3.3634,-3.3642,-3.3771,-3.365,-3.3655,-3.3659,-3.3929,-3.3934,-3.3938,0,0,0,0,0,0,-3.3501,-3.3514,-3.3618,-3.3566,-3.3578,-3.3571,-3.3604,-3.3601,-3.362,-3.362,-3.3618,-3.3602,-3.3625,-3.3634,-3.3714,-3.3772,-3.3658,-3.3663,-3.3924,-3.393,-3.3936,-3.403,0,0,0,0,0,0,-3.3497,-3.3513,-3.3554,-3.3567,-3.3581,-3.3689,-3.3608,-3.3605,-3.3629,-3.3621,-3.3639,-3.3639,-3.3622,-3.3706,-3.3719,-3.3777,-3.3667,-3.3919,-3.3927,-3.3934,-3.4022,-3.4039,-3.4053,0,0,0,0,0,-3.3492,-3.3579,-3.3557,-3.357,-3.3632,-3.3692,-3.37,-3.3679,-3.3634,-3.3676,-3.3676,-3.3638,-3.3763,-3.3715,-3.3729,-3.379,-3.3915,-3.3924,-3.3933,-3.4015,-3.4036,-3.4053,0,0,0,0,0,0,-3.3573,-3.358,-3.3555,-3.3649,-3.3671,-3.368,-3.3731,-3.3702,-3.3737,-3.3728,-3.3701,-3.3705,-3.3791,-3.3798,-3.3744,-3.3896,-3.3832,-3.3844,-3.3889,-3.3908,-3.3924,-3.3921,-3.3672,0,0,0,0,0,-3.3601,-3.365,-3.3653,-3.3736,-3.3748,-3.3738,-3.3764,-3.3746,-3.3767,-3.3776,-3.3782,-3.3805,-3.3849,-3.3879,-3.3919,-3.4022,-3.4026,-3.4071,-3.4087,-3.41,-3.4111,-3.4168,-3.4188,-3.3969,-3.3969,-3.3968,0,0,-3.3661,-3.3671,-3.3703,-3.3753,-3.3767,-3.3818,-3.3746,-3.3803,-3.3841,-3.3785,-3.386,-3.3866,-3.3889,-3.3981,-3.4022,-3.399,-3.4173,-3.4112,-3.4122,-3.4127,-3.4179,-3.42,-3.4219,-3.3975,-3.3974,-3.3973,0,0,-3.3797,-3.3809,-3.388,-3.3896,-3.3919,-3.3912,-3.3929,-3.3943,-3.3944,-3.402,-3.3979,-3.4024,-3.4101,-3.4119,-3.4139,-3.4283,-3.425,-3.4297,-3.438,-3.4435,-3.4452,-3.4468,-3.452,-3.4539,-3.4308,-3.4309,-3.4309,0,-3.3869,-3.3944,-3.392,-3.398,-3.4004,-3.3955,-3.4027,-3.4043,-3.4079,-3.4097,-3.406,-3.4156,-3.4168,-3.4264,-3.43,-3.4317,-3.4336,-3.4295,-3.4452,-3.4467,-3.4481,-3.4531,-3.4551,-3.4314,-3.4314,-3.4313,-3.4312,0,-3.4032,-3.4085,-3.4139,-3.4175,-3.4204,-3.427,-3.4257,-3.4289,-3.4269,-3.4266,-3.4345,-3.4357,-3.4401,-3.4422,-3.4403,-3.4516,-3.4496,-3.4456,-3.4391,-3.4508,-3.4554,-3.4573,-3.4322,-3.432,-3.4319,-3.4317,0,0,-3.4221,-3.4242,-3.4263,-3.4279,-3.4301,-3.4342,-3.4406,-3.4448,-3.4477,-3.4503,-3.4557,-3.4624,-3.4587,-3.461,-3.4592,-3.464,-3.4756,-3.4595,-3.4595,-3.4625,-3.4883,-3.4914,-3.4937,-3.4733,-3.4737,-3.474,-3.4882,0,-3.4357,-3.4467,-3.4448,-3.4555,-3.4605,-3.4559,-3.4615,-3.4635,-3.4635,-3.4677,-3.4676,-3.4724,-3.4671,-3.4685,-3.4731,-3.4732,-3.4807,-3.4721,-3.4785,-3.4787,-3.4781,-3.4961,-3.4993,-3.5127,-3.49,-3.4903,-3.4905,0,-3.4531,-3.4564,-3.4677,-3.4692,-3.4712,-3.4763,-3.48,-3.4841,-3.4863,-3.4859,-3.4885,-3.4859,-3.4923,-3.4857,-3.4946,-3.4888,-3.4913,-3.4918,-3.4922,-3.4928,-3.4854,-3.4973,-3.5168,-3.5189,-3.4933,-3.4931,-3.4929,0,-3.4659,-3.4731,-3.4808,-3.4823,-3.4843,-3.488,-3.489,-3.4908,-3.4935,-3.4968,-3.4986,-3.5026,-3.5048,-3.508,-3.5066,-3.5019,-3.5159,-3.5091,-3.5159,-3.516,-3.5191,-3.519,-3.5395,-3.5206,-3.5205,-3.5205,-3.5204,0,-3.4814,-3.4885,-3.4866,-3.4914,-3.4993,-3.497,-3.5048,-3.5053,-3.507,-3.5118,-3.5081,-3.5127,-3.5105,-3.515,-3.5139,-3.5216,-3.5226,-3.5226,-3.5222,-3.523,-3.523,-3.5246,-3.5237,-3.521,-3.5209,-3.5208,-3.5207,0,-3.4971,-3.4961,-3.5042,-3.5054,-3.5059,-3.5116,-3.5127,-3.5172,-3.5168,-3.523,-3.5243,-3.5238,-3.5289,-3.5278,-3.5334,-3.5327,-3.5424,-3.5408,-3.5416,-3.5413,-3.5482,-3.5477,-3.5706,-3.5736,-3.5526,-3.5528,-3.553,0,-3.5071,-3.5125,-3.5142,-3.5172,-3.5185,-3.5233,-3.5261,-3.524,-3.527,-3.53,-3.5342,-3.539,-3.5427,-3.5511,-3.5513,-3.5556,-3.5542,-3.5619,-3.5548,-3.5554,-3.5545,-3.5542,-3.5548,-3.5634,-3.5636,-3.5638,-3.564,0,-3.525,-3.5243,-3.5284,-3.5324,-3.5358,-3.5388,-3.5415,-3.5441,-3.5423,-3.5459,-3.5511,-3.554,-3.5597,-3.5646,-3.5686,-3.5696,-3.5666,-3.5662,-3.568,-3.5689,-3.5693,-3.5693,-3.5456,-3.5657,-3.5655,-3.5654,-3.5653,-3.5652,-3.5383,-3.5429,-3.5449,-3.5496,-3.5514,-3.5541,-3.5584,-3.5586,-3.5629,-3.5674,-3.5659,-3.5719,-3.574,-3.5791,-3.5806,-3.5853,-3.5824,-3.585,-3.5857,-3.5865,-3.5874,-3.5684,-3.586,-3.586,-3.5859,-3.5859,-3.5859,0,-3.5562,-3.5572,-3.5616,-3.5655,-3.5693,-3.566,-3.5688,-3.5722,-3.5775,-3.5797,-3.5835,-3.5895,-3.5942,-3.5948,-3.5992,-3.6029,-3.6016,-3.6042,-3.6039,-3.6043,-3.5896,-3.5877,-3.6051,-3.6051,-3.6051,-3.6051,-3.6051,-3.6051,-3.5659,-3.5736,-3.5731,-3.5817,-3.5827,-3.5885,-3.5905,-3.5929,-3.5947,-3.6016,-3.6055,-3.6058,-3.6075,-3.612,-3.6162,-3.6163,-3.6182,-3.6213,-3.6208,-3.6072,-3.6053,-3.6034,-3.6016,-3.6217,-3.6217,-3.635,-3.6352,-3.6353]},{"header":{"parameterUnit":"m.s-1","parameterCategory":1,"la1":30.2991,"la2":30.254,"lo1":-89.0895,"lo2":-89.0444,"dy":0.0017,"dx":0.0017,"nx":28,"ny":28,"refTime":"2026-02-08T09:00:00:Z","depth":0,"parameterNumber":3,"parameterNumberName":"V-component_of_WINDS"},"data":[0,0,0,0,0,0,0,0,0,0,0,0,0,0,0,0,0,0,0,0,0,0,0,0,0,0,0,0,0,0,0,0,0,0,0,0,0,0,0,0,0,0,0,0,0,0,0,0,0,0,0,0,0,0,0,0,0,0,-0.0115,-0.0115,0,-0.0103,-0.0103,-0.0103,-0.0094,-0.0094,-0.0094,-0.0094,-0.0082,-0.0082,-0.0081,0,0,0,0,0,0,0,0,0,0,0,0,0,-0.0128,-0.0128,-0.0115,-0.0115,-0.0115,-0.0103,-0.0103,-0.0103,-0.0094,-0.0094,-0.0094,-0.0094,-0.0082,-0.0082,-0.0081,0,0,0,0,0,0,0,0,0,0,0,0,0,-0.012,-0.0128,-0.0115,-0.0109,-0.0108,-0.0103,-0.0103,-0.0103,-0.0094,-0.0094,-0.0094,-0.0093,-0.0082,-0.0082,-0.0081,-0.0082,0,0,-0.008,-0.008,0,0,0,0,0,0,0,0,-0.012,-0.0119,-0.011,-0.0109,-0.0108,-0.01,-0.0103,-0.0096,-0.0094,-0.0099,-0.0094,-0.0093,-0.0088,-0.0087,-0.0085,-0.0081,-0.0081,-0.008,-0.008,-0.008,-0.008,0,0,0,0,0,0,0,-0.0121,-0.012,-0.011,-0.011,-0.0109,-0.0106,-0.0105,-0.0102,-0.0095,-0.0099,-0.0098,-0.0097,-0.0088,-0.0086,-0.0085,-0.0081,-0.008,-0.008,-0.008,-0.008,-0.0075,-0.0075,0,0,0,0,0,0,-0.0123,-0.012,-0.0111,-0.011,-0.0114,-0.0106,-0.0104,-0.0103,-0.0095,-0.0093,-0.0097,-0.0096,-0.0086,-0.0085,-0.0084,-0.0084,-0.008,-0.008,-0.0079,-0.0075,-0.0075,-0.0075,0,0,0,0,0,0,-0.0123,-0.0122,-0.0111,-0.0115,-0.0113,-0.0106,-0.0104,-0.0103,-0.0101,-0.0093,-0.0092,-0.0096,-0.0086,-0.0085,-0.0082,-0.0083,-0.0079,-0.0079,-0.0075,-0.0075,-0.0075,-0.0083,0,0,0,0,0,0,-0.0123,-0.0122,-0.0123,-0.0115,-0.0113,-0.011,-0.0104,-0.0102,-0.01,-0.0099,-0.0092,-0.0091,-0.0086,-0.0083,-0.0082,-0.0083,-0.0079,-0.0075,-0.0075,-0.0075,-0.0082,-0.0083,-0.0084,0,0,0,0,0,-0.0124,-0.0126,-0.0123,-0.0122,-0.0114,-0.011,-0.0109,-0.0103,-0.01,-0.01,-0.0095,-0.0091,-0.0083,-0.0083,-0.0082,-0.0082,-0.0075,-0.0075,-0.0075,-0.0082,-0.0083,-0.0084,0,0,0,0,0,0,-0.0134,-0.0125,-0.0121,-0.0121,-0.0116,-0.0108,-0.0108,-0.0104,-0.01,-0.01,-0.0092,-0.0091,-0.0089,-0.0085,-0.0085,-0.0081,-0.0078,-0.0078,-0.0084,-0.0085,-0.0085,-0.0086,-0.0079,0,0,0,0,0,-0.0136,-0.0133,-0.0125,-0.0126,-0.0123,-0.0116,-0.0114,-0.011,-0.0105,-0.0103,-0.0098,-0.0093,-0.0089,-0.0087,-0.0083,-0.0082,-0.0079,-0.0081,-0.0082,-0.0083,-0.0083,-0.008,-0.0081,-0.0076,-0.0076,-0.0076,0,0,-0.014,-0.0135,-0.0134,-0.0127,-0.0123,-0.012,-0.0115,-0.0112,-0.011,-0.0102,-0.0099,-0.0095,-0.0089,-0.0087,-0.0086,-0.0084,-0.0083,-0.0083,-0.0083,-0.0083,-0.0081,-0.0081,-0.0082,-0.0076,-0.0076,-0.0076,0,0,-0.0147,-0.0143,-0.0142,-0.0137,-0.0131,-0.0126,-0.0126,-0.0118,-0.0115,-0.0111,-0.0105,-0.0102,-0.0096,-0.0092,-0.0089,-0.0091,-0.0087,-0.009,-0.0094,-0.0092,-0.0092,-0.0093,-0.0093,-0.0093,-0.009,-0.009,-0.009,0,-0.0153,-0.0149,-0.0142,-0.0139,-0.0136,-0.0129,-0.0127,-0.0123,-0.0116,-0.0114,-0.0112,-0.0103,-0.0098,-0.0094,-0.0095,-0.0093,-0.0092,-0.0091,-0.0093,-0.0093,-0.0093,-0.0093,-0.0093,-0.0091,-0.0091,-0.0091,-0.0091,0,-0.0156,-0.0153,-0.0153,-0.0145,-0.0142,-0.014,-0.0133,-0.013,-0.0126,-0.0121,-0.0116,-0.0111,-0.0105,-0.0103,-0.01,-0.0098,-0.0097,-0.0094,-0.0091,-0.0094,-0.0094,-0.0094,-0.0091,-0.0091,-0.0091,-0.0091,0,0,-0.017,-0.0157,-0.0157,-0.0153,-0.0145,-0.0142,-0.0139,-0.0133,-0.013,-0.0125,-0.0122,-0.0116,-0.0113,-0.0109,-0.0105,-0.0103,-0.0104,-0.01,-0.0099,-0.01,-0.0101,-0.0104,-0.0104,-0.0101,-0.0101,-0.0101,-0.0102,0,-0.0174,-0.0169,-0.0162,-0.0158,-0.0155,-0.0147,-0.0144,-0.0138,-0.0133,-0.0129,-0.0123,-0.0119,-0.0115,-0.0113,-0.011,-0.0104,-0.0104,-0.0104,-0.0098,-0.0098,-0.0099,-0.0104,-0.0107,-0.0107,-0.0102,-0.0102,-0.0102,0,-0.0179,-0.0174,-0.017,-0.016,-0.0159,-0.0156,-0.0149,-0.0146,-0.0138,-0.0135,-0.013,-0.0124,-0.012,-0.0117,-0.0111,-0.0111,-0.0108,-0.0104,-0.0104,-0.0103,-0.01,-0.0103,-0.0108,-0.0108,-0.0102,-0.0102,-0.0102,0,-0.0188,-0.018,-0.0176,-0.0173,-0.0162,-0.016,-0.0156,-0.0148,-0.0145,-0.0138,-0.0136,-0.0129,-0.0126,-0.0121,-0.0113,-0.0112,-0.0107,-0.0104,-0.0104,-0.0104,-0.0103,-0.0103,-0.0107,-0.0102,-0.0102,-0.0102,-0.0102,0,-0.0194,-0.0192,-0.018,-0.0178,-0.0175,-0.0166,-0.0163,-0.0158,-0.0151,-0.0147,-0.014,-0.0136,-0.0127,-0.0122,-0.0116,-0.0111,-0.0109,-0.0106,-0.0104,-0.0106,-0.0107,-0.0104,-0.0104,-0.0102,-0.0102,-0.0102,-0.0102,0,-0.0204,-0.0196,-0.0191,-0.0181,-0.0178,-0.0176,-0.0167,-0.0164,-0.0158,-0.0153,-0.0151,-0.0141,-0.0135,-0.0127,-0.0118,-0.0114,-0.011,-0.0107,-0.0112,-0.0111,-0.0111,-0.0111,-0.0113,-0.0113,-0.0108,-0.0108,-0.0108,0,-0.0208,-0.0206,-0.0195,-0.0192,-0.0187,-0.0182,-0.0178,-0.0169,-0.0165,-0.0156,-0.0153,-0.0146,-0.014,-0.013,-0.0122,-0.0115,-0.0113,-0.0114,-0.0112,-0.0113,-0.0112,-0.0112,-0.0111,-0.0115,-0.0115,-0.0115,-0.0115,0,-0.0216,-0.0212,-0.0206,-0.0199,-0.0194,-0.0188,-0.0181,-0.0179,-0.0168,-0.0164,-0.0157,-0.0152,-0.0143,-0.0135,-0.0127,-0.0122,-0.0116,-0.0115,-0.0115,-0.0117,-0.0119,-0.0117,-0.0113,-0.0116,-0.0116,-0.0115,-0.0115,-0.0115,-0.0223,-0.022,-0.0212,-0.0205,-0.0199,-0.0193,-0.0189,-0.0182,-0.0176,-0.0167,-0.0162,-0.0155,-0.0147,-0.0135,-0.0129,-0.0123,-0.0122,-0.0121,-0.0121,-0.0121,-0.0121,-0.012,-0.0122,-0.0122,-0.0122,-0.0122,-0.0122,0,-0.023,-0.0224,-0.0218,-0.0208,-0.0203,-0.0198,-0.019,-0.0185,-0.0179,-0.0172,-0.0165,-0.0157,-0.0149,-0.014,-0.0132,-0.0129,-0.0126,-0.0127,-0.0127,-0.0126,-0.0124,-0.0124,-0.0129,-0.0129,-0.0129,-0.0129,-0.0129,-0.0129,-0.0233,-0.0228,-0.0222,-0.0213,-0.0207,-0.02,-0.0195,-0.0189,-0.0183,-0.0174,-0.0167,-0.0161,-0.0153,-0.0143,-0.0136,-0.0134,-0.0131,-0.0132,-0.0129,-0.0127,-0.0126,-0.0126,-0.0126,-0.0132,-0.0132,-0.0132,-0.0132,-0.0132]}]]